TimeEST,TemperatureF,Dew PointF,Humidity,Sea Level PressureIn,VisibilityMPH,Wind Direction,Wind SpeedMPH,Gust SpeedMPH,PrecipitationIn,Events,Conditions,WindDirDegrees,DateUTC
12:08 AM,28.4,24.8,86,29.95,5.0,SSE,5.8,-,0.00,Snow,Light Snow,150,2013-02-05 05:08:00
12:54 AM,28.9,25.0,85,29.94,6.0,East,4.6,-,0.00,Snow,Light Snow,100,2013-02-05 05:54:00
1:54 AM,30.0,26.1,85,29.93,6.0,East,4.6,-,0.00,,Overcast,100,2013-02-05 06:54:00
2:54 AM,30.0,26.1,85,29.93,6.0,NE,3.5,-,N/A,,Overcast,40,2013-02-05 07:54:00
3:54 AM,30.0,26.1,85,29.91,6.0,ENE,3.5,-,N/A,,Overcast,70,2013-02-05 08:54:00
4:54 AM,30.0,26.1,85,29.91,6.0,NE,4.6,-,N/A,,Overcast,50,2013-02-05 09:54:00
5:54 AM,30.9,26.1,82,29.92,6.0,ENE,4.6,-,N/A,,Overcast,70,2013-02-05 10:54:00
6:16 AM,30.2,26.6,86,29.91,7.0,ENE,3.5,-,N/A,,Overcast,60,2013-02-05 11:16:00
6:54 AM,30.9,26.1,82,29.91,8.0,ENE,3.5,-,N/A,,Overcast,70,2013-02-05 11:54:00
7:54 AM,30.9,26.1,82,29.94,7.0,ENE,3.5,-,N/A,,Overcast,60,2013-02-05 12:54:00
8:54 AM,32.0,26.1,79,29.94,7.0,ENE,5.8,-,0.00,,Overcast,60,2013-02-05 13:54:00
9:54 AM,33.1,27.0,78,29.96,7.0,NE,4.6,-,N/A,,Overcast,50,2013-02-05 14:54:00
10:17 AM,33.8,26.6,75,29.97,6.0,ENE,4.6,-,0.00,Snow,Light Snow,60,2013-02-05 15:17:00
10:54 AM,33.1,28.0,82,29.96,5.0,ENE,5.8,-,0.00,Snow,Light Snow,60,2013-02-05 15:54:00
11:09 AM,33.8,26.6,75,29.96,7.0,NE,5.8,-,0.00,,Overcast,40,2013-02-05 16:09:00
11:34 AM,33.8,28.4,81,29.96,7.0,ENE,4.6,-,0.00,,Overcast,60,2013-02-05 16:34:00
11:54 AM,34.0,27.0,75,29.96,7.0,ENE,4.6,-,0.00,,Overcast,60,2013-02-05 16:54:00
12:48 PM,33.8,28.4,81,29.92,7.0,ENE,5.8,-,N/A,,Overcast,70,2013-02-05 17:48:00
12:54 PM,34.0,28.0,79,29.93,7.0,NE,5.8,-,N/A,,Overcast,50,2013-02-05 17:54:00
1:49 PM,33.8,26.6,75,29.91,6.0,NE,8.1,-,0.00,Snow,Light Snow,40,2013-02-05 18:49:00
1:54 PM,34.0,27.0,75,29.91,5.0,ENE,5.8,-,0.00,Snow,Light Snow,70,2013-02-05 18:54:00
2:24 PM,33.8,28.4,81,29.90,7.0,NE,6.9,-,0.00,,Overcast,50,2013-02-05 19:24:00
2:54 PM,34.0,27.0,75,29.91,7.0,ENE,3.5,-,0.00,,Overcast,60,2013-02-05 19:54:00
3:54 PM,34.0,27.0,75,29.90,7.0,ENE,6.9,-,N/A,,Overcast,70,2013-02-05 20:54:00
4:08 PM,33.8,28.4,81,29.90,6.0,East,8.1,-,N/A,,Haze,90,2013-02-05 21:08:00
4:33 PM,33.8,28.4,81,29.91,3.0,ENE,4.6,-,0.00,Snow,Light Snow,60,2013-02-05 21:33:00
4:40 PM,33.8,28.4,81,29.91,2.5,ENE,6.9,-,0.00,Snow,Light Snow,60,2013-02-05 21:40:00
4:54 PM,33.1,28.0,82,29.91,2.5,East,4.6,-,0.00,Snow,Light Snow,80,2013-02-05 21:54:00
5:01 PM,33.8,28.4,81,29.91,3.0,East,4.6,-,0.00,Snow,Light Snow,90,2013-02-05 22:01:00
5:47 PM,33.8,28.4,81,29.92,5.0,Calm,Calm,-,0.01,,Overcast,0,2013-02-05 22:47:00
5:54 PM,33.1,28.9,85,29.91,5.0,Calm,Calm,-,0.01,,Overcast,0,2013-02-05 22:54:00
6:02 PM,33.8,28.4,81,29.91,2.5,East,3.5,-,0.00,Snow,Light Snow,80,2013-02-05 23:02:00
6:16 PM,33.8,30.2,87,29.91,2.5,Calm,Calm,-,0.00,Snow,Light Snow,0,2013-02-05 23:16:00
6:27 PM,32.0,30.2,93,29.91,3.0,Calm,Calm,-,0.00,Snow,Light Snow,0,2013-02-05 23:27:00
6:49 PM,33.8,30.2,87,29.92,2.5,NE,4.6,-,0.00,Snow,Light Snow,50,2013-02-05 23:49:00
6:54 PM,33.1,30.0,89,29.91,2.5,NE,4.6,-,0.00,Snow,Light Snow,40,2013-02-05 23:54:00
7:27 PM,32.0,30.2,93,29.91,3.0,East,3.5,-,0.00,,Overcast,80,2013-02-06 00:27:00
7:54 PM,33.1,30.0,89,29.91,4.0,NE,3.5,-,0.00,,Overcast,40,2013-02-06 00:54:00
8:54 PM,33.1,30.9,92,29.92,4.0,NE,3.5,-,N/A,,Overcast,40,2013-02-06 01:54:00
9:54 PM,33.1,30.9,92,29.94,4.0,Calm,Calm,-,N/A,,Overcast,0,2013-02-06 02:54:00
10:54 PM,32.0,30.0,92,29.94,4.0,Calm,Calm,-,N/A,,Overcast,0,2013-02-06 03:54:00
11:11 PM,33.8,30.2,87,29.94,4.0,Calm,Calm,-,N/A,,Overcast,0,2013-02-06 04:11:00
11:38 PM,33.8,30.2,87,29.94,3.0,Calm,Calm,-,N/A,,Overcast,0,2013-02-06 04:38:00
11:54 PM,33.1,30.0,89,29.94,4.0,Calm,Calm,-,0.00,Snow,Light Snow,0,2013-02-06 04:54:00